Skip Page Navigation
NASA JPL Caltech
NASA Logo - Jet Propulsion Laboratory + View the NASA Portal
+ Center for Near-Earth Object Studies
JPL Home Earth Solar System Stars & Galaxies Technology
JPL Solar System Dynamics
BODIES ORBITS EPHEMERIDES TOOLS PHYSICAL DATA DISCOVERY FAQ SITE MAP
JPL Small-Body Database Browser
Search: [ help ]  
216064 (2006 QP10)
Classification: Main-belt Asteroid          SPK-ID: 2216064
Ephemeris | Orbit Diagram | Orbital Elements | Mission Design | Physical Parameters | Discovery Circumstances | Close-Approach Data ]

[ show orbit diagram ]
Orbital Elements at Epoch 2459200.5 (2020-Dec-17.0) TDB
Reference: JPL 16 (heliocentric ecliptic J2000)
 Element Value Uncertainty (1-sigma)   Units 
e .1481113010788986 1.4597e-07  
a 2.453990921753231 2.5822e-08 au
q 2.090527133496555 3.4732e-07 au
i 6.988266245679994 4.9989e-06 deg
node 115.6814863550296 7.2361e-05 deg
peri 259.8723875604164 7.7688e-05 deg
M 247.7436853505376 3.8879e-05 deg
tp 2459638.340704658596
(2022-Feb-27.84070466)
0.0001572 TDB
period 1404.131733428944
3.84
2.2162e-05
6.068e-08
d
yr
n .2563862004036231 4.0467e-09 deg/d
Q 2.817454710009908 2.9646e-08 au
  Orbit Determination Parameters
   # obs. used (total)      228  
   data-arc span      6941 days (19.00 yr)  
   first obs. used      2001-05-24  
   last obs. used      2020-05-25  
   planetary ephem.      DE441  
   SB-pert. ephem.      SB441-N16  
   condition code      0  
   norm. resid. RMS      .68851  
   source      ORB  
   producer      Otto Matic  
   solution date      2021-Apr-13 23:53:17  

Additional Information
 Earth MOID = 1.10343 au 
 Jupiter MOID = 2.67382 au 
 T_jup = 3.469 
[ show covariance matrix ]

Ephemeris | Orbit Diagram | Orbital Elements | Mission Design | Physical Parameters | Discovery Circumstances | Close-Approach Data ]

Physical Parameter Table
Parameter Symbol Value Units Sigma Reference Notes
absolute magnitude H 17.04   n/a E2021B55  

216064 (2006 QP10)          Discovered 2006-Aug-20 by Sheridan, E. at Kanab
Reference: 20090607/Numbers.arcLast Updated: 2009-06-08

[ show close-approach data ]
Ephemeris | Orbit Diagram | Orbital Elements | Mission Design | Physical Parameters | Discovery Circumstances | Close-Approach Data ]
ABOUT SSD CREDITS/AWARDS PRIVACY/COPYRIGHT GLOSSARY LINKS
FirstGov 2021-Jun-25 11:06 UT
(server date/time)  
NASA Home Page
Site Manager:   Ryan S. Park
Webmaster  Alan B. Chamberlin